CW3081 Weather Reports


Display with metric or nautical units.
time (UTC)temp
F
wind
direction
speed
MPH
gust
MPH
rain 1hr
in
rain 24hr
in
rain mn
in
humidity
%
barometer
mb
20260906104558 0 0.0 0.0 0.00 0.00 0.00 1012.4
20260906103048 0 0.0 0.0 0.00 0.00 0.00 1012.5
20260906101556 0 0.0 0.0 0.00 0.00 0.00 1012.6
20260906100055 0 0.0 0.0 0.00 0.00 0.00 1012.5
20260906094602 0 0.0 0.0 0.00 0.00 0.00 1012.4
20260906093131 0 0 0.0 0.0 0.00 0.00 0.00 1012.4
20260906091609 73 0 0.0 0.0 0.00 0.00 0.00 96 1012.3
20260906090058 73 0 0.0 0.0 0.00 0.00 0.00 96 1012.2
20260906084601 73 0 0.0 0.0 0.00 0.00 0.00 96 1012.0
20260906083100 73 0 0.0 0.0 0.00 0.00 0.00 96 1012.0
20260906081559 73 0 0.0 0.0 0.00 0.00 0.00 96 1012.1
20260906074554 73 0 0.0 0.0 0.00 0.00 0.00 96 1012.3
20260906073051 73 0 0.0 0.0 0.00 0.00 0.00 95 1012.3
20260906071549 74 193 0.0 1.0 0.00 0.00 0.00 95 1012.7
20260906070057 74 218 0.0 1.0 0.00 0.00 0.00 95 1013.2
20260906064552 75 0 0.0 0.0 0.00 0.00 0.00 93 1012.7
20260906063052 76 148 0.0 4.0 0.00 0.00 0.00 92 1012.7
20260906061550 78 0 0.0 2.0 0.00 0.00 0.00 88 1012.8
20260906060100 78 307 0.0 0.0 0.00 0.00 0.00 86 1012.7
20260906054551 77 0 0.0 0.0 0.00 0.00 0.00 89 1012.5
20260906053050 77 0 0.0 1.0 0.00 0.00 0.00 92 1012.8
20260906051605 77 0 0.0 0.0 0.00 0.00 0.00 93 1012.7
20260906050108 77 0 0.0 0.0 0.00 0.00 0.00 92 1012.5
20260906044557 78 0 0.0 0.0 0.00 0.00 0.00 92 1012.3
20260906043049 78 0 0.0 0.0 0.00 0.00 0.00 91 1012.2
20260906041557 78 0 0.0 1.0 0.00 0.00 0.00 91 1012.3
20260906040104 79 0 0.0 0.0 0.00 0.00 0.00 90 1012.6
20260906034551 79 0 0.0 0.0 0.00 0.00 0.00 90 1012.6
20260906033101 79 0 0.0 0.0 0.00 0.00 0.00 90 1012.4
20260906031557 79 84 0.0 1.0 0.00 0.00 0.00 89 1012.4
20260906030104 80 0 0.0 0.0 0.00 0.00 0.00 88 1012.2
20260906024603 79 37 0.0 1.0 0.00 0.00 0.00 88 1012.0
20260906023058 80 0 0.0 0.0 0.00 0.00 0.00 89 1011.5
20260906021601 80 0 0.0 0.0 0.00 0.00 0.00 89 1011.2
20260906020100 81 0 0.0 0.0 0.00 0.00 0.00 89 1011.2
20260906014634 81 0 0.0 0.0 0.00 0.00 0.00 88 1011.3
20260906013059 81 0 0.0 0.0 0.00 0.00 0.00 88 1011.4
20260906011554 82 0 0.0 0.0 0.00 0.00 0.00 87 1011.4
20260906010053 83 0 0.0 0.0 0.00 0.00 0.00 83 1011.4
20260906004610 83 0 0.0 0.0 0.00 0.00 0.00 83 1011.4
20260906003108 84 0 0.0 0.0 0.00 0.00 0.00 82 1011.2
20260906001551 85 0 0.0 0.0 0.00 0.00 0.00 82 1011.3
20260906000051 86 0 0.0 0.0 0.00 0.00 0.00 81 1011.3
20260905234609 88 0 0.0 0.0 0.00 0.00 0.00 79 1011.5
20260905233053 89 0 0.0 0.0 0.00 0.00 0.00 76 1011.5
20260905231549 90 0 0.0 0.0 0.00 0.00 0.00 73 1011.3
20260905230136 90 0 0.0 0.0 0.00 0.00 0.00 70 1011.4
20260905224602 91 0 0.0 0.0 0.00 0.00 0.00 68 1011.2
20260905223100 92 0 0.0 0.0 0.00 0.00 0.00 67 1011.3
20260905221612 92 0 0.0 0.0 0.00 0.00 0.00 63 1011.3
20260905220055 93 0 0.0 0.0 0.00 0.00 0.00 58 1011.5
20260905214603 93 0 0.0 0.0 0.00 0.00 0.00 59 1011.5
20260905213106 93 4 0.0 1.0 0.00 0.00 0.00 57 1011.5
20260905211602 93 4 0.0 0.0 0.00 0.00 0.00 55 1011.5
20260905210058 93 0 0.0 1.0 0.00 0.00 0.00 58 1011.8
20260905204550 94 0 0.0 1.0 0.00 0.00 0.00 58 1012.0
20260905203104 94 4 0.0 1.0 0.00 0.00 0.00 58 1012.1
20260905201615 94 359 0.0 2.0 0.00 0.00 0.00 56 1012.3
20260905200054 95 254 1.0 2.0 0.00 0.00 0.00 56 1012.5
20260905194600 95 245 0.0 2.0 0.00 0.00 0.00 56 1012.8
20260905193112 95 0 0.0 1.0 0.00 0.00 0.00 59 1012.8
20260905191556 95 0 0.0 2.0 0.00 0.00 0.00 57 1013.0
20260905190054 96 103 1.0 4.0 0.00 0.00 0.00 55 1013.3
20260905184555 95 51 1.0 2.0 0.00 0.00 0.00 56 1013.6
20260905183050 95 7 0.0 2.0 0.00 0.00 0.00 56 1013.7
20260905181608 95 0 0.0 2.0 0.00 0.00 0.00 56 1013.8
20260905180052 93 0 1.0 2.0 0.00 0.00 0.00 58 1014.1
20260905174556 93 0 0.0 2.0 0.00 0.00 0.00 61 1014.2
20260905173053 93 341 0.0 2.0 0.00 0.00 0.00 60 1014.2
20260905171557 91 0 0.0 2.0 0.00 0.00 0.00 64 1014.4
20260905170051 91 0 0.0 2.0 0.00 0.00 0.00 65 1014.4
20260905164603 90 0 0.0 0.0 0.00 0.00 0.00 69 1014.6
20260905163049 88 0 0.0 0.0 0.00 0.00 0.00 72 1014.9
20260905161603 87 0 0.0 0.0 0.00 0.00 0.00 72 1014.8
20260905160052 86 0 0.0 0.0 0.00 0.00 0.00 76 1015.0
20260905154559 85 0 0.0 0.0 0.00 0.00 0.00 81 1015.1
20260905153051 83 0 0.0 0.0 0.00 0.00 0.00 82 1015.3
20260905151602 82 0 0.0 0.0 0.00 0.00 0.00 82 1015.4
20260905150051 82 0 0.0 0.0 0.00 0.00 0.00 84 1015.4
20260905144549 80 0 0.0 0.0 0.00 0.00 0.00 86 1015.5
20260905143049 0 0.0 0.0 0.00 0.00 0.00 1015.4
20260905141558 0 0.0 0.0 0.00 0.00 0.00 1015.4
20260905140050 0 0.0 0.0 0.00 0.00 0.00 1015.3
20260905134552 0 0.0 0.0 0.00 0.00 0.00 1015.3
20260905133055 0 0.0 0.0 0.00 0.00 0.00 1015.3
20260905131607 0 0.0 0.0 0.00 0.00 0.00 1015.4
20260905130051 0 0.0 0.0 0.00 0.00 0.00 1015.3
20260905124551 0 0.0 0.0 0.00 0.00 0.00 1015.3
20260905123100 0 0.0 0.0 0.00 0.00 0.00 1015.3
20260905121551 0 0.0 0.0 0.00 0.00 0.00 1015.2
20260905120049 0 0.0 0.0 0.00 0.00 0.00 1015.1
20260905114600 0 0.0 0.0 0.00 0.00 0.00 1014.7
20260905113055 0 0.0 0.0 0.00 0.00 0.00 1014.6
20260905111603 0 0.0 0.0 0.00 0.00 0.00 1014.4
20260905110056 0 0.0 0.0 0.00 0.00 0.00 1014.3